Terminal Aerodrome Forecast
Issued by NWS

Home | Current Version | Previous Version | Text Only | Print | Product List | Glossary On
Versions: 1 2 3 4 5 6 7 8 9 10 11 12 13 14 15 16 17 18 19 20 21
000
FTUS46 KSGX 022320
TAFCRQ
TAF
KCRQ 022320Z 0300/0324 25007KT P6SM SCT013
     FM030300 VRB04KT P6SM OVC010
     FM031100 00000KT 6SM BR OVC008
     FM031600 24004KT P6SM OVC010
     FM032100 26008KT P6SM FEW013=

USA.gov is the U.S. government's official web portal to all federal, state and local government web resources and services.